Regional Weather Roundup
Issued by NWS

Home | Current Version | Previous Version | Graphics & Text | Print | Product List | Glossary On
Versions: 1 2 3 4 5 6 7 8 9 10 11 12 13 14 15 16 17 18 19 20 21 22 23 24 25 26 27 28 29 30 31 32 33 34 35 36 37 38 39 40 41 42 43 44 45 46 47 48 49 50
000
ASUS43 KDTX 020210
RWRMI
MICHIGAN HOURLY REGIONAL WEATHER ROUNDUP
NATIONAL WEATHER SERVICE DETROIT/PONTIAC MI
1000 PM EDT WED OCT 01 2014

NOTE: "FAIR" INDICATES FEW OR NO CLOUDS BELOW 12,000 FEET WITH NO
SIGNIFICANT WEATHER AND/OR OBSTRUCTION TO VISIBILITY.

MIZ047>049-052>055-059>063-066>070-074>076-081>083-020300-
SOUTHEAST LOWER MICHIGAN

CITY           SKY/WX    TMP DP  RH WIND       PRES   REMARKS
ADRIAN         CLEAR     57  53  86 CALM      30.04S
ALMA           FOG       48  47  97 CALM      30.03R VSB 1
ANN ARBOR      CLEAR     52  48  86 CALM      30.03R
BAD AXE        CLEAR     56  56 100 CALM      30.05R FOG
DETROIT CITY   CLEAR     61  55  81 CALM      30.05R
DETROIT        MOCLDY    59  54  83 CALM      30.05R
FLINT          CLEAR     53  50  89 SE5       30.04R
GROSSE ILE     CLEAR     59  55  88 CALM      30.03R
HILLSDALE      CLEAR     53  50  90 SE3       30.03S
HOWELL         CLEAR     54  51  89 CALM      30.03S

CITY           SKY/WX    TMP DP  RH WIND       PRES   REMARKS
JACKSON        CLEAR     51  47  86 CALM      30.03R
LAMBERTVILLE     N/A     54  50  87 CALM      30.04R FOG
LANSING        PTCLDY    55  48  77 E6        30.03R
LAPEER         NOT AVBL
MASON          PTCLDY    49  47  93 CALM      30.03R
MONROE           N/A     52  50  93 CALM      30.02S FOG
MT. CLEMENS    PTCLDY    58  58  99 S5        30.03R
PONTIAC        CLEAR     57  52  83 SE5       30.04R
PORT HOPE        N/A     58  56  93 VRB3      30.04R
PORT HURON     MOCLDY    61  57  88 CALM      30.05R
TRI CITIES     MOCLDY    58  52  80 S5        30.04R
YPSILANTI      CLEAR     59  53  80 E3        30.04R
$$
MIZ043>046-050>051-056>058-064>065-071>073-077>080-020300-
SOUTHWEST LOWER MICHIGAN

CITY           SKY/WX    TMP DP  RH WIND       PRES   REMARKS
BATTLE CREEK   CLEAR     57  48  72 SE6       30.01S
BENTON HARBOR  PTCLDY    59  50  72 SE7       29.96R
BIG RAPIDS     CLEAR     49  49 100 CALM      29.99F FOG
COLDWATER      CLEAR     57  49  77 CALM      30.01S
HOLLAND        PTCLDY    59  51  75 SE7       29.98
MARSHALL       CLEAR     53  48  83 CALM      30.01F
MUSKEGON       MOCLDY    57  50  77 SE5       29.98R
$$
MIZ016>042-020300-
NORTHERN LOWER MICHIGAN

CITY           SKY/WX    TMP DP  RH WIND       PRES   REMARKS
ALPENA         CLOUDY    58  57  97 S8        30.04R FOG
BEAVER ISLAND  PTCLDY    54  54  98 SE3       29.97F
BELLAIRE       FOG       51  49  94 CALM      30.00S VSB 1
CADILLAC       CLEAR     48  47  97 E3        29.99F
CHARLEVOIX     PTCLDY    55  54  94 CALM      30.02R
FRANKFORT      PTCLDY    52  49  87 CALM      29.96F
GAYLORD        PTCLDY    53  50  89 S5        30.02R
GRAYLING       FOG       49  49 100 CALM      30.03R VSB 3/4
HARBOR SPRINGS PTCLDY    55  54  95 E3        30.00S FOG
HOUGHTON LAKE  FOG       48  47  96 SE5       30.03R VSB 1
OSCODA         PTCLDY    58  56  94 S3        30.03R FOG
PELLSTON       CLOUDY    51  51 100 CALM      30.01S
TRAVERSE CITY  PTCLDY    52  49  89 CALM      29.97F
$$
MIZ007>008-015-020300-
EASTERN UPPER MICHIGAN

CITY           SKY/WX    TMP DP  RH WIND       PRES   REMARKS
MACKINAC ISLAN CLOUDY    57  57 100 SE7       30.01S FOG
NEWBERRY       CLOUDY    55  54  95 SE13      29.96F
S. S. MARIE    CLOUDY    56  55  97 SE10      30.01R FOG
$$
MIZ004>006-011>014-085-020300-
CENTRAL UPPER MICHIGAN

CITY           SKY/WX    TMP DP  RH WIND       PRES   REMARKS
MANISTIQUE     CLOUDY    56  54  94 S5        29.96R
SAWYER-GWINN   CLOUDY    54  48  82 S15       29.92R
$$
MIZ001>003-009>011-084-020300-
WESTERN UPPER MICHIGAN

CITY           SKY/WX    TMP DP  RH WIND       PRES   REMARKS
IRON MOUNTAIN  CLOUDY    53  50  89 SE12      29.91S
HOUGHTON       CLOUDY    54  50  86 S12       29.85R
COPPER HARBOR    N/A     54  51  90 SW9G21    29.84S
$$

ABBREVIATIONS USED IN REMARKS
   TC - TEMPERATURE IN CELSIUS
  WCI - WIND CHILL INDEX
   HX - HEAT INDEX
  VSB - VISIBILITY




USA.gov is the U.S. government's official web portal to all federal, state and local government web resources and services.